{"data":{"norad_id":39612,"epoch":"2026-05-25T04:01:38.130816Z","epoch_age_seconds":60241,"freshness":"FRESH","line1":"1 39612U 14010A   26145.16780244  .00000043  00000+0  00000+0 0  9992","line2":"2 39612   0.1999  85.7679 0002997  29.7584 247.5323  1.00297453 44583","mean_motion":1.00297453,"eccentricity":0.0002997,"inclination_deg":0.1999,"raan_deg":85.7679,"arg_perigee_deg":29.7584,"mean_anomaly_deg":247.5323,"bstar":0,"rev_number":4458,"period_min":1435.7293798876,"perigee_km":35766.766209563,"apogee_km":35792.035437734,"semimajor_km":42157.537823648,"source":"CELESTRAK","updated_at":"2026-05-25T13:38:13.949056Z"}}